User: anonymous   Login
Location: Unspecified
(0.0000°N, 0.0000°E)
Time: 00:47:04
(UTC+00:00)
Language:

BB3 - Orbit

View from above orbital plane
View from above orbital plane
View from above satellite
View from above satellite

Ground track
Ground track

The orbit is defined by the following mean orbital elements,

1 57760U          26145.09627204 +.00000000 +00000-0 +18883-3 0 00007
2 57760  81.0111  14.8831 0135569  15.6432 344.8885 14.51457287    08
Epoch (UTC): 25 May 2026 02:18:37
Eccentricity: 0.0135569
inclination: 81.0111°
perigee height: 625 km
apogee height: 817 km
right ascension of ascending node: 14.8831°
argument of perigee: 15.6432°
revolutions per day: 14.51457287
mean anomaly at epoch: 344.8885°

The dashed part of the orbit path shows where the satellite is in the earth's shadow,  

DLR